ITY1647 LIML-LIBD

Flight info

Callsign ITY1647
Flight time 1h 11m
Altitude 35000
Route LOGDI DCT LURUT DCT NUTRO DCT ARSOB DCT AFCAM DCT BEFHE DCT EKMUR
Aircraft A320/M-SDE3FGHIRWY/LB1

Departure

Time 2026-05-07 16:28
Airport Milano Linate Airport (LIML)

Arrival

Time 2026-05-07 17:39
Airport Bari Karol Wojtyła International Airport (LIBD)
Time Latitude Longitude Altitude Speed Heading
2026-05-07 15:56 45.45974 9.27904 360 ft 0 kts
2026-05-07 16:15 45.45953 9.27903 360 ft 4 kts
2026-05-07 16:15 45.45932 9.27903 360 ft 4 kts
2026-05-07 16:15 45.45911 9.27894 360 ft 4 kts 64°
2026-05-07 16:15 45.45907 9.27879 364 ft 0 kts 91°
2026-05-07 16:19 45.45907 9.27884 360 ft 3 kts 90°
2026-05-07 16:19 45.45907 9.27915 365 ft 5 kts 91°
2026-05-07 16:19 45.45904 9.27961 361 ft 4 kts 109°
2026-05-07 16:20 45.45856 9.27984 361 ft 9 kts 181°
2026-05-07 16:20 45.45793 9.27983 360 ft 9 kts 181°
2026-05-07 16:20 45.45717 9.27981 362 ft 12 kts 180°
2026-05-07 16:20 45.45634 9.27980 364 ft 12 kts 180°
2026-05-07 16:21 45.45555 9.27979 360 ft 11 kts 181°
2026-05-07 16:21 45.45479 9.27977 362 ft 10 kts 181°
2026-05-07 16:21 45.45413 9.27977 360 ft 9 kts 179°
2026-05-07 16:21 45.45353 9.27953 366 ft 10 kts 206°
2026-05-07 16:22 45.45286 9.27905 360 ft 12 kts 206°
2026-05-07 16:22 45.45200 9.27870 360 ft 14 kts 184°
2026-05-07 16:22 45.45101 9.27877 363 ft 15 kts 175°
2026-05-07 16:22 45.44990 9.27891 360 ft 17 kts 175°
2026-05-07 16:23 45.44870 9.27932 362 ft 19 kts 165°
2026-05-07 16:23 45.44737 9.27951 360 ft 20 kts 175°
2026-05-07 16:23 45.44593 9.27965 360 ft 20 kts 176°
2026-05-07 16:23 45.44447 9.27982 360 ft 22 kts 175°
2026-05-07 16:24 45.44290 9.27998 360 ft 23 kts 175°
2026-05-07 16:24 45.44125 9.28016 362 ft 24 kts 175°
2026-05-07 16:24 45.43967 9.28033 360 ft 20 kts 175°
2026-05-07 16:24 45.43831 9.28047 360 ft 20 kts 175°
2026-05-07 16:25 45.43689 9.28063 360 ft 21 kts 175°
2026-05-07 16:25 45.43595 9.28073 361 ft 18 kts 175°
2026-05-07 16:25 45.43512 9.28082 363 ft 9 kts 175°
2026-05-07 16:25 45.43461 9.28058 361 ft 7 kts 225°
2026-05-07 16:26 45.43446 9.28003 364 ft 5 kts 261°
2026-05-07 16:26 45.43443 9.27959 361 ft 4 kts 265°
2026-05-07 16:26 45.43440 9.27899 363 ft 7 kts 265°
2026-05-07 16:26 45.43446 9.27835 364 ft 5 kts 307°
2026-05-07 16:27 45.43475 9.27819 362 ft 4 kts 352°
2026-05-07 16:27 45.43481 9.27818 365 ft 0 kts 354°
2026-05-07 16:27 45.43557 9.27809 361 ft 42 kts 355°
2026-05-07 16:27 45.44110 9.27750 359 ft 114 kts 355°
2026-05-07 16:28 45.45098 9.27639 388 ft 166 kts 355°
2026-05-07 16:28 45.46244 9.27524 1055 ft 164 kts
2026-05-07 16:28 45.47375 9.27708 1798 ft 163 kts
2026-05-07 16:28 45.48501 9.27887 2504 ft 162 kts
2026-05-07 16:29 45.49623 9.28057 3091 ft 162 kts
2026-05-07 16:29 45.50745 9.28227 3617 ft 165 kts
2026-05-07 16:29 45.51912 9.28718 3899 ft 187 kts 28°
2026-05-07 16:29 45.52965 9.29873 4364 ft 195 kts 50°
2026-05-07 16:30 45.53662 9.31497 4947 ft 198 kts 70°
2026-05-07 16:30 45.53908 9.33542 5226 ft 220 kts 94°
2026-05-07 16:30 45.53503 9.35707 5557 ft 242 kts 120°
2026-05-07 16:30 45.52357 9.37570 6062 ft 263 kts 147°
2026-05-07 16:31 45.50649 9.38652 6692 ft 274 kts 161°
2026-05-07 16:31 45.48876 9.39728 7482 ft 281 kts 148°
2026-05-07 16:31 45.47471 9.41679 8290 ft 287 kts 126°
2026-05-07 16:31 45.46336 9.44049 9155 ft 291 kts 125°
2026-05-07 16:32 45.45201 9.46461 9992 ft 295 kts 124°
2026-05-07 16:32 45.44035 9.48953 10458 ft 313 kts 124°
2026-05-07 16:32 45.42782 9.51627 10734 ft 335 kts 124°
2026-05-07 16:32 45.41466 9.54430 11314 ft 344 kts 124°
2026-05-07 16:33 45.40121 9.57280 12018 ft 350 kts 125°
2026-05-07 16:33 45.38728 9.60147 12734 ft 354 kts 129°
2026-05-07 16:33 45.37031 9.62703 13431 ft 358 kts 141°
2026-05-07 16:33 45.34996 9.64762 14076 ft 361 kts 151°
2026-05-07 16:34 45.32841 9.66624 14715 ft 365 kts 151°
2026-05-07 16:34 45.30666 9.68507 15363 ft 368 kts 151°
2026-05-07 16:34 45.28474 9.70412 15982 ft 371 kts 150°
2026-05-07 16:34 45.26260 9.72339 16620 ft 375 kts 151°
2026-05-07 16:35 45.24025 9.74284 17257 ft 379 kts 151°
2026-05-07 16:35 45.21768 9.76248 17874 ft 382 kts 151°
2026-05-07 16:35 45.19492 9.78229 18465 ft 386 kts 151°
2026-05-07 16:35 45.17196 9.80224 19010 ft 389 kts 151°
2026-05-07 16:36 45.14875 9.82237 19547 ft 392 kts 152°
2026-05-07 16:36 45.12538 9.84256 20103 ft 395 kts 152°
2026-05-07 16:36 45.10179 9.86288 20667 ft 399 kts 152°
2026-05-07 16:36 45.07797 9.88338 21207 ft 402 kts 152°
2026-05-07 16:37 45.05400 9.90402 21756 ft 405 kts 152°
2026-05-07 16:37 45.02984 9.92487 22298 ft 409 kts 152°
2026-05-07 16:37 45.00544 9.94594 22823 ft 412 kts 153°
2026-05-07 16:37 44.98087 9.96709 23353 ft 416 kts 153°
2026-05-07 16:38 44.95603 9.98841 23784 ft 420 kts 153°
2026-05-07 16:38 44.93102 10.00990 24208 ft 422 kts 153°
2026-05-07 16:38 44.90588 10.03143 24640 ft 424 kts 154°
2026-05-07 16:38 44.88056 10.05303 25054 ft 427 kts 154°
2026-05-07 16:39 44.85511 10.07474 25448 ft 429 kts 154°
2026-05-07 16:39 44.82982 10.09632 25831 ft 432 kts 154°
2026-05-07 16:39 44.80406 10.11823 26200 ft 434 kts 154°
2026-05-07 16:39 44.77816 10.14030 26578 ft 437 kts 154°
2026-05-07 16:40 44.75260 10.16394 26941 ft 444 kts 147°
2026-05-07 16:40 44.72968 10.19367 27273 ft 454 kts 136°
2026-05-07 16:40 44.71053 10.22936 27653 ft 462 kts 126°
2026-05-07 16:40 44.69587 10.27006 27989 ft 471 kts 115°
2026-05-07 16:41 44.68519 10.31389 28350 ft 476 kts 111°
2026-05-07 16:41 44.67473 10.35824 28684 ft 479 kts 112°
2026-05-07 16:41 44.66415 10.40276 28993 ft 482 kts 112°
2026-05-07 16:41 44.65347 10.44751 29302 ft 485 kts 112°
2026-05-07 16:42 44.64269 10.49245 29608 ft 487 kts 112°
2026-05-07 16:42 44.63181 10.53763 29903 ft 490 kts 112°
2026-05-07 16:42 44.62086 10.58310 30184 ft 492 kts 112°
2026-05-07 16:42 44.60985 10.62870 30421 ft 495 kts 112°
2026-05-07 16:43 44.59877 10.67451 30669 ft 496 kts 112°
2026-05-07 16:43 44.58766 10.72041 30918 ft 498 kts 112°
2026-05-07 16:43 44.57652 10.76645 31159 ft 499 kts 112°
2026-05-07 16:43 44.56531 10.81267 31394 ft 501 kts 112°
2026-05-07 16:44 44.55407 10.85888 31698 ft 501 kts 113°
2026-05-07 16:44 44.54283 10.90498 32028 ft 499 kts 113°
2026-05-07 16:44 44.53159 10.95099 32358 ft 498 kts 113°
2026-05-07 16:44 44.51837 10.99552 32678 ft 492 kts 122°
2026-05-07 16:45 44.50178 11.03725 32994 ft 489 kts 125°
2026-05-07 16:45 44.48487 11.07851 33317 ft 488 kts 125°
2026-05-07 16:45 44.46798 11.11972 33651 ft 487 kts 125°
2026-05-07 16:45 44.45136 11.16026 33980 ft 486 kts 125°
2026-05-07 16:46 44.43455 11.20123 34289 ft 485 kts 125°
2026-05-07 16:46 44.41781 11.24210 34582 ft 484 kts 125°
2026-05-07 16:46 44.40105 11.28292 34762 ft 483 kts 126°
2026-05-07 16:46 44.38429 11.32360 34925 ft 483 kts 126°
2026-05-07 16:47 44.36757 11.36402 34977 ft 478 kts 126°
2026-05-07 16:47 44.33441 11.44408 34997 ft 475 kts 126°
2026-05-07 16:48 44.30136 11.52381 35017 ft 474 kts 126°
2026-05-07 16:48 44.26829 11.60345 35039 ft 474 kts 126°
2026-05-07 16:49 44.23517 11.68295 35013 ft 474 kts 126°
2026-05-07 16:49 44.20199 11.76229 34995 ft 474 kts 126°
2026-05-07 16:50 44.16872 11.84158 34986 ft 474 kts 126°
2026-05-07 16:50 44.13542 11.92077 34976 ft 474 kts 126°
2026-05-07 16:51 44.10206 11.99977 34990 ft 474 kts 126°
2026-05-07 16:51 44.06869 12.07882 34972 ft 474 kts 126°
2026-05-07 16:52 44.03527 12.15778 34981 ft 474 kts 126°
2026-05-07 16:52 44.00181 12.23665 34998 ft 473 kts 127°
2026-05-07 16:53 43.96830 12.31532 35002 ft 473 kts 127°
2026-05-07 16:53 43.93473 12.39381 34973 ft 473 kts 127°
2026-05-07 16:54 43.90103 12.47220 34981 ft 473 kts 127°
2026-05-07 16:54 43.86740 12.55055 34988 ft 473 kts 127°
2026-05-07 16:55 43.83388 12.62840 34990 ft 473 kts 127°
2026-05-07 16:55 43.79978 12.70709 34992 ft 473 kts 127°
2026-05-07 16:56 43.76589 12.78522 34972 ft 473 kts 128°
2026-05-07 16:56 43.71529 12.90171 34972 ft 473 kts 127°
2026-05-07 16:57 43.68132 12.97961 34977 ft 473 kts 127°
2026-05-07 16:57 43.64729 13.05746 34963 ft 473 kts 128°
2026-05-07 16:58 43.61315 13.13526 34968 ft 474 kts 128°
2026-05-07 16:58 43.57894 13.21302 34964 ft 474 kts 128°
2026-05-07 16:59 43.54467 13.29068 34971 ft 474 kts 128°
2026-05-07 16:59 43.51037 13.36832 34978 ft 475 kts 128°
2026-05-07 17:00 43.47594 13.44594 34986 ft 475 kts 128°
2026-05-07 17:00 43.44146 13.52355 34966 ft 475 kts 128°
2026-05-07 17:01 43.40698 13.60105 34957 ft 475 kts 128°
2026-05-07 17:01 43.37236 13.67855 34968 ft 476 kts 128°
2026-05-07 17:02 43.33766 13.75610 34975 ft 476 kts 128°
2026-05-07 17:02 43.30318 13.83286 34980 ft 476 kts 128°
2026-05-07 17:03 43.26842 13.90996 34973 ft 477 kts 128°
2026-05-07 17:03 43.23346 13.98738 34979 ft 477 kts 128°
2026-05-07 17:04 43.19837 14.06471 34992 ft 478 kts 128°
2026-05-07 17:04 43.16390 14.13991 34996 ft 476 kts 131°
2026-05-07 17:05 43.12216 14.20875 34967 ft 469 kts 139°
2026-05-07 17:05 43.07924 14.27605 34974 ft 470 kts 138°
2026-05-07 17:06 43.03622 14.34344 34980 ft 470 kts 139°
2026-05-07 17:06 42.99313 14.41070 34985 ft 470 kts 139°
2026-05-07 17:07 42.95035 14.47738 34990 ft 470 kts 139°
2026-05-07 17:07 42.90738 14.54415 34993 ft 470 kts 139°
2026-05-07 17:08 42.86394 14.61146 34971 ft 472 kts 139°
2026-05-07 17:08 42.82052 14.67861 34977 ft 473 kts 139°
2026-05-07 17:09 42.77694 14.74577 34979 ft 473 kts 139°
2026-05-07 17:09 42.73335 14.81284 34980 ft 473 kts 139°
2026-05-07 17:10 42.68960 14.87986 34992 ft 474 kts 139°
2026-05-07 17:10 42.64237 14.94056 34945 ft 466 kts 147°
2026-05-07 17:11 42.59378 14.99894 34999 ft 467 kts 148°
2026-05-07 17:11 42.54513 15.05716 35004 ft 467 kts 148°
2026-05-07 17:12 42.49651 15.11528 34417 ft 464 kts 147°
2026-05-07 17:12 42.47233 15.14418 33874 ft 461 kts 147°
2026-05-07 17:12 42.44843 15.17272 33327 ft 457 kts 147°
2026-05-07 17:13 42.42470 15.20104 32755 ft 453 kts 147°
2026-05-07 17:13 42.40109 15.22918 32177 ft 451 kts 147°
2026-05-07 17:13 42.37767 15.25707 31648 ft 447 kts 146°
2026-05-07 17:13 42.35429 15.28485 31122 ft 445 kts 146°
2026-05-07 17:14 42.33112 15.31236 30597 ft 443 kts 146°
2026-05-07 17:14 42.31579 15.33057 30259 ft 441 kts 146°
2026-05-07 17:14 42.29282 15.35784 29718 ft 439 kts 146°
2026-05-07 17:14 42.26998 15.38497 29187 ft 435 kts 146°
2026-05-07 17:15 42.24735 15.41180 28690 ft 431 kts 146°
2026-05-07 17:15 42.22489 15.43834 28218 ft 427 kts 146°
2026-05-07 17:15 42.20264 15.46454 27756 ft 423 kts 146°
2026-05-07 17:15 42.18057 15.49052 27292 ft 419 kts 146°
2026-05-07 17:16 42.15876 15.51621 26841 ft 415 kts 145°
2026-05-07 17:16 42.13719 15.54166 26426 ft 410 kts 144°
2026-05-07 17:16 42.11579 15.56688 25995 ft 407 kts 144°
2026-05-07 17:16 42.09458 15.59188 25551 ft 404 kts 144°
2026-05-07 17:17 42.07349 15.61670 25108 ft 401 kts 144°
2026-05-07 17:17 42.05257 15.64122 24680 ft 398 kts 144°
2026-05-07 17:17 42.03176 15.66559 24277 ft 394 kts 144°
2026-05-07 17:17 42.01122 15.68966 23864 ft 390 kts 144°
2026-05-07 17:18 41.99079 15.71349 23434 ft 387 kts 144°
2026-05-07 17:18 41.97051 15.73711 22953 ft 384 kts 143°
2026-05-07 17:18 41.95039 15.76049 22498 ft 381 kts 143°
2026-05-07 17:18 41.93079 15.78426 22055 ft 380 kts 138°
2026-05-07 17:19 41.91309 15.81059 21592 ft 378 kts 135°
2026-05-07 17:19 41.89566 15.83688 21156 ft 376 kts 135°
2026-05-07 17:19 41.87834 15.86301 20759 ft 373 kts 135°
2026-05-07 17:19 41.86118 15.88884 20364 ft 369 kts 135°
2026-05-07 17:20 41.84414 15.91438 19983 ft 366 kts 136°
2026-05-07 17:20 41.82721 15.93967 19614 ft 362 kts 136°
2026-05-07 17:20 41.81047 15.96471 19247 ft 359 kts 135°
2026-05-07 17:20 41.79383 15.98958 18882 ft 356 kts 135°
2026-05-07 17:21 41.77738 16.01420 18513 ft 354 kts 135°
2026-05-07 17:21 41.76100 16.03867 18139 ft 351 kts 135°
2026-05-07 17:21 41.74476 16.06290 17743 ft 348 kts 135°
2026-05-07 17:21 41.72864 16.08696 17371 ft 346 kts 135°
2026-05-07 17:22 41.71263 16.11080 16997 ft 343 kts 135°
2026-05-07 17:22 41.69678 16.13435 16631 ft 340 kts 135°
2026-05-07 17:22 41.68100 16.15773 16269 ft 337 kts 135°
2026-05-07 17:22 41.66539 16.18088 15905 ft 334 kts 135°
2026-05-07 17:23 41.64992 16.20386 15550 ft 331 kts 135°
2026-05-07 17:23 41.63476 16.22637 15213 ft 328 kts 135°
2026-05-07 17:23 41.61954 16.24895 14864 ft 326 kts 135°
2026-05-07 17:23 41.60443 16.27131 14524 ft 323 kts 135°
2026-05-07 17:24 41.58941 16.29351 14187 ft 320 kts 135°
2026-05-07 17:24 41.57454 16.31552 13856 ft 318 kts 135°
2026-05-07 17:24 41.55977 16.33734 13486 ft 316 kts 135°
2026-05-07 17:24 41.54511 16.35898 13105 ft 313 kts 135°
2026-05-07 17:25 41.53056 16.38045 12741 ft 310 kts 135°
2026-05-07 17:25 41.51540 16.40062 12360 ft 306 kts 141°
2026-05-07 17:25 41.49970 16.41971 11978 ft 304 kts 141°
2026-05-07 17:25 41.48411 16.43867 11605 ft 302 kts 140°
2026-05-07 17:26 41.46863 16.45748 11222 ft 300 kts 140°
2026-05-07 17:26 41.45332 16.47613 10872 ft 297 kts 140°
2026-05-07 17:26 41.43809 16.49467 10500 ft 296 kts 140°
2026-05-07 17:26 41.42296 16.51308 10132 ft 294 kts 138°
2026-05-07 17:27 41.40989 16.53381 9884 ft 289 kts 124°
2026-05-07 17:27 41.39968 16.55638 9659 ft 282 kts 122°
2026-05-07 17:27 41.38958 16.57865 9290 ft 279 kts 123°
2026-05-07 17:27 41.37954 16.60062 8933 ft 277 kts 123°
2026-05-07 17:28 41.36954 16.62240 8570 ft 274 kts 123°
2026-05-07 17:28 41.35966 16.64396 8189 ft 272 kts 122°
2026-05-07 17:28 41.34982 16.66543 7799 ft 271 kts 122°
2026-05-07 17:28 41.34008 16.68673 7419 ft 269 kts 122°
2026-05-07 17:29 41.33040 16.70793 7012 ft 268 kts 123°
2026-05-07 17:29 41.32075 16.72899 6626 ft 266 kts 123°
2026-05-07 17:29 41.31115 16.74989 6232 ft 264 kts 123°
2026-05-07 17:29 41.30161 16.77067 5837 ft 262 kts 124°
2026-05-07 17:30 41.29219 16.79121 5459 ft 259 kts 124°
2026-05-07 17:30 41.28347 16.81202 5284 ft 259 kts 115°
2026-05-07 17:30 41.27922 16.83546 5134 ft 265 kts 98°
2026-05-07 17:30 41.28076 16.86006 4989 ft 271 kts 79°
2026-05-07 17:31 41.28712 16.88382 4856 ft 274 kts 73°
2026-05-07 17:31 41.29389 16.90747 4706 ft 273 kts 73°
2026-05-07 17:31 41.30059 16.93105 4558 ft 272 kts 74°
2026-05-07 17:31 41.30721 16.95462 4403 ft 272 kts 74°
2026-05-07 17:32 41.31372 16.97814 4249 ft 270 kts 77°
2026-05-07 17:32 41.31621 17.00229 4110 ft 260 kts 99°
2026-05-07 17:32 41.31158 17.02495 4017 ft 251 kts 122°
2026-05-07 17:32 41.30099 17.04289 4024 ft 246 kts 143°
2026-05-07 17:33 41.28667 17.05386 4019 ft 229 kts 162°
2026-05-07 17:33 41.27173 17.05799 4025 ft 211 kts 170°
2026-05-07 17:33 41.25789 17.06106 4031 ft 201 kts 170°
2026-05-07 17:33 41.24418 17.06415 3989 ft 198 kts 170°
2026-05-07 17:34 41.23051 17.06597 3694 ft 199 kts 186°
2026-05-07 17:34 41.21788 17.05864 3393 ft 205 kts 217°
2026-05-07 17:34 41.21037 17.04222 3096 ft 217 kts 250°
2026-05-07 17:34 41.20723 17.02247 2786 ft 219 kts 253°
2026-05-07 17:35 41.20427 17.00269 2564 ft 216 kts 252°
2026-05-07 17:35 41.20119 16.98383 2513 ft 200 kts 245°
2026-05-07 17:35 41.19658 16.96708 2427 ft 189 kts 243°
2026-05-07 17:35 41.19204 16.95080 2090 ft 189 kts 243°
2026-05-07 17:36 41.18747 16.93452 2021 ft 189 kts 243°
2026-05-07 17:36 41.18282 16.91802 2026 ft 191 kts 244°
2026-05-07 17:36 41.17851 16.90254 2011 ft 166 kts 243°
2026-05-07 17:36 41.17476 16.88897 1984 ft 151 kts 241°
2026-05-07 17:37 41.17115 16.87610 1788 ft 145 kts 242°
2026-05-07 17:37 41.16763 16.86370 1556 ft 142 kts 243°
2026-05-07 17:37 41.16417 16.85155 1356 ft 141 kts 243°
2026-05-07 17:37 41.16074 16.83935 1172 ft 141 kts 243°
2026-05-07 17:38 41.15735 16.82721 1005 ft 139 kts 244°
2026-05-07 17:38 41.15391 16.81499 818 ft 142 kts 242°
2026-05-07 17:38 41.15041 16.80260 625 ft 142 kts 246°
2026-05-07 17:38 41.14700 16.79050 411 ft 143 kts 246°
2026-05-07 17:39 41.14352 16.77810 249 ft 144 kts 244°
2026-05-07 17:39 41.14002 16.76589 134 ft 133 kts 243°
2026-05-07 17:39 41.13723 16.75608 140 ft 90 kts 249°
2026-05-07 17:39 41.13560 16.75027 137 ft 45 kts 250°
2026-05-07 17:40 41.13497 16.74802 139 ft 14 kts 250°
2026-05-07 17:40 41.13462 16.74740 141 ft 6 kts 213°
2026-05-07 17:40 41.13441 16.74732 142 ft 0 kts 185°
2026-05-07 17:40 41.13426 16.74737 143 ft 5 kts 162°
2026-05-07 17:41 41.13408 16.74753 145 ft 4 kts 140°
2026-05-07 17:41 41.13385 16.74792 146 ft 6 kts 124°
2026-05-07 17:41 41.13359 16.74849 147 ft 8 kts 120°
2026-05-07 17:41 41.13345 16.74929 148 ft 10 kts 80°
2026-05-07 17:42 41.13369 16.75019 147 ft 11 kts 69°
2026-05-07 17:42 41.13398 16.75120 146 ft 13 kts 69°
2026-05-07 17:42 41.13437 16.75258 142 ft 18 kts 69°
2026-05-07 17:42 41.13481 16.75415 142 ft 18 kts 69°
2026-05-07 17:43 41.13527 16.75575 138 ft 21 kts 71°
2026-05-07 17:43 41.13578 16.75759 138 ft 17 kts 69°
2026-05-07 17:43 41.13617 16.75891 137 ft 16 kts 69°
2026-05-07 17:43 41.13639 16.75994 136 ft 9 kts 92°
2026-05-07 17:44 41.13601 16.76064 136 ft 9 kts 141°
2026-05-07 17:44 41.13558 16.76118 136 ft 8 kts 120°
2026-05-07 17:44 41.13562 16.76198 136 ft 9 kts 70°
2026-05-07 17:44 41.13582 16.76270 136 ft 8 kts 70°
2026-05-07 17:45 41.13577 16.76313 136 ft 4 kts 130°
2026-05-07 17:45 41.13552 16.76331 136 ft 3 kts 157°
2026-05-07 17:45 41.13533 16.76341 136 ft 1 kts 159°
2026-05-07 17:45 41.13526 16.76345 136 ft 1 kts 159°
2026-05-07 17:46 41.13521 16.76347 136 ft 0 kts 159°